Time,TemperatureF,DewpointF,PressureIn,WindDirection,WindDirectionDegrees,WindSpeedMPH,WindSpeedGustMPH,Humidity,HourlyPrecipIn,Conditions,Clouds,dailyrainin,SolarRadiationWatts/m^2,SoftwareType,DateUTC
2013-02-24 00:06:00,34.2,29.0,30.02,NW,321,0.0,1.0,82,0.00,,,0.00,0,weatherlink.com 1.10,2013-02-24 06:06:00,
2013-02-24 00:21:00,33.6,29.0,30.03,NW,321,0.0,0.0,83,0.00,,,0.00,0,weatherlink.com 1.10,2013-02-24 06:21:00,
2013-02-24 00:36:00,33.3,29.0,30.03,NW,321,0.0,0.0,84,0.00,,,0.00,0,weatherlink.com 1.10,2013-02-24 06:36:00,
2013-02-24 00:51:00,33.0,29.0,30.03,NW,321,0.0,0.0,84,0.00,,,0.00,0,weatherlink.com 1.10,2013-02-24 06:51:00,
2013-02-24 01:06:00,32.6,29.0,30.03,NW,321,0.0,0.0,85,0.00,,,0.00,0,weatherlink.com 1.10,2013-02-24 07:06:00,
2013-02-24 01:21:00,32.0,28.0,30.03,NW,321,0.0,0.0,86,0.00,,,0.00,0,weatherlink.com 1.10,2013-02-24 07:21:00,
2013-02-24 01:36:00,31.9,29.0,30.03,NW,321,0.0,0.0,87,0.00,,,0.00,0,weatherlink.com 1.10,2013-02-24 07:36:00,
2013-02-24 01:51:00,31.7,28.0,30.03,NW,321,0.0,0.0,87,0.00,,,0.00,0,weatherlink.com 1.10,2013-02-24 07:51:00,
2013-02-24 02:06:00,31.4,28.0,30.04,NW,321,0.0,0.0,87,0.00,,,0.00,0,weatherlink.com 1.10,2013-02-24 08:06:00,
2013-02-24 02:21:00,30.8,27.0,30.04,NW,321,0.0,0.0,87,0.00,,,0.00,0,weatherlink.com 1.10,2013-02-24 08:21:00,
2013-02-24 02:36:00,30.9,28.0,30.04,NW,321,0.0,0.0,88,0.00,,,0.00,0,weatherlink.com 1.10,2013-02-24 08:36:00,
2013-02-24 02:51:00,30.6,28.0,30.04,NW,321,0.0,0.0,88,0.00,,,0.00,0,weatherlink.com 1.10,2013-02-24 08:51:00,
2013-02-24 03:06:00,30.5,28.0,30.03,NW,321,0.0,0.0,89,0.00,,,0.00,0,weatherlink.com 1.10,2013-02-24 09:06:00,
2013-02-24 03:21:00,30.4,28.0,30.03,NW,321,0.0,1.0,90,0.00,,,0.00,0,weatherlink.com 1.10,2013-02-24 09:21:00,
2013-02-24 03:36:00,30.5,28.0,30.03,NW,321,0.0,0.0,89,0.00,,,0.00,0,weatherlink.com 1.10,2013-02-24 09:36:00,
2013-02-24 03:51:00,30.3,28.0,30.04,NW,321,0.0,0.0,90,0.00,,,0.00,0,weatherlink.com 1.10,2013-02-24 09:51:00,
2013-02-24 04:06:00,30.5,28.0,30.02,NW,321,0.0,2.0,89,0.00,,,0.00,0,weatherlink.com 1.10,2013-02-24 10:06:00,
2013-02-24 04:21:00,30.2,28.0,30.03,NW,321,0.0,2.0,90,0.00,,,0.00,0,weatherlink.com 1.10,2013-02-24 10:21:00,
2013-02-24 04:36:00,30.6,28.0,30.02,ENE,72,0.0,3.0,90,0.00,,,0.00,0,weatherlink.com 1.10,2013-02-24 10:36:00,
2013-02-24 04:51:00,32.2,29.0,30.03,East,83,1.0,5.0,87,0.00,,,0.00,0,weatherlink.com 1.10,2013-02-24 10:51:00,
2013-02-24 05:06:00,32.6,28.0,30.04,East,85,0.0,2.0,84,0.00,,,0.00,0,weatherlink.com 1.10,2013-02-24 11:06:00,
2013-02-24 05:21:00,32.0,28.0,30.05,East,85,0.0,1.0,84,0.00,,,0.00,0,weatherlink.com 1.10,2013-02-24 11:21:00,
2013-02-24 05:36:00,31.5,28.0,30.06,East,85,0.0,0.0,85,0.00,,,0.00,0,weatherlink.com 1.10,2013-02-24 11:36:00,
2013-02-24 05:51:00,31.5,28.0,30.06,East,85,0.0,3.0,86,0.00,,,0.00,0,weatherlink.com 1.10,2013-02-24 11:51:00,
2013-02-24 06:06:00,31.3,28.0,30.07,East,85,0.0,2.0,86,0.00,,,0.00,0,weatherlink.com 1.10,2013-02-24 12:06:00,
2013-02-24 06:21:00,30.9,27.0,30.08,East,85,0.0,0.0,86,0.00,,,0.00,0,weatherlink.com 1.10,2013-02-24 12:21:00,
2013-02-24 06:36:00,30.0,27.0,30.09,East,85,0.0,0.0,87,0.00,,,0.00,5,weatherlink.com 1.10,2013-02-24 12:36:00,
2013-02-24 06:51:00,29.7,27.0,30.09,East,85,0.0,2.0,88,0.00,,,0.00,14,weatherlink.com 1.10,2013-02-24 12:51:00,
2013-02-24 07:06:00,29.4,27.0,30.09,East,85,0.0,0.0,89,0.00,,,0.00,25,weatherlink.com 1.10,2013-02-24 13:06:00,
2013-02-24 07:21:00,31.0,29.0,30.10,East,85,1.0,3.0,90,0.00,,,0.00,84,weatherlink.com 1.10,2013-02-24 13:21:00,
2013-02-24 07:36:00,33.8,30.0,30.10,NE,46,2.0,4.0,84,0.00,,,0.00,134,weatherlink.com 1.10,2013-02-24 13:36:00,
2013-02-24 07:52:00,35.5,30.0,30.10,NE,34,1.0,4.0,80,0.00,,,0.00,193,weatherlink.com 1.10,2013-02-24 13:52:00,
2013-02-24 08:07:00,36.8,30.0,30.10,East,86,3.0,8.0,77,0.00,,,0.00,255,weatherlink.com 1.10,2013-02-24 14:07:00,
2013-02-24 08:22:00,38.2,30.0,30.10,East,86,2.0,7.0,73,0.00,,,0.00,306,weatherlink.com 1.10,2013-02-24 14:22:00,
2013-02-24 08:37:00,39.6,31.0,30.10,ESE,114,5.0,9.0,70,0.00,,,0.00,357,weatherlink.com 1.10,2013-02-24 14:37:00,
2013-02-24 08:52:00,40.5,31.0,30.11,North,5,4.0,10.0,68,0.00,,,0.00,408,weatherlink.com 1.10,2013-02-24 14:52:00,
2013-02-24 09:07:00,41.4,31.0,30.09,East,97,5.0,14.0,67,0.00,,,0.00,454,weatherlink.com 1.10,2013-02-24 15:07:00,
2013-02-24 09:22:00,42.6,31.0,30.09,East,82,3.0,10.0,63,0.00,,,0.00,497,weatherlink.com 1.10,2013-02-24 15:22:00,
2013-02-24 09:37:00,43.4,31.0,30.09,NE,37,5.0,13.0,62,0.00,,,0.00,536,weatherlink.com 1.10,2013-02-24 15:37:00,
2013-02-24 09:52:00,44.4,31.0,30.09,East,80,5.0,11.0,59,0.00,,,0.00,575,weatherlink.com 1.10,2013-02-24 15:52:00,
2013-02-24 10:07:00,45.6,31.0,30.09,East,88,3.0,8.0,58,0.00,,,0.00,608,weatherlink.com 1.10,2013-02-24 16:07:00,
2013-02-24 10:22:00,46.3,32.0,30.09,SE,133,2.0,10.0,57,0.00,,,0.00,640,weatherlink.com 1.10,2013-02-24 16:22:00,
2013-02-24 10:37:00,46.6,31.0,30.10,SE,130,5.0,12.0,55,0.00,,,0.00,664,weatherlink.com 1.10,2013-02-24 16:37:00,
2013-02-24 10:52:00,47.5,32.0,30.10,East,83,5.0,9.0,55,0.00,,,0.00,687,weatherlink.com 1.10,2013-02-24 16:52:00,
2013-02-24 11:07:00,48.1,33.0,30.09,SSE,151,3.0,9.0,56,0.00,,,0.00,705,weatherlink.com 1.10,2013-02-24 17:07:00,
2013-02-24 11:23:00,48.8,32.0,30.09,ENE,63,5.0,9.0,52,0.00,,,0.00,719,weatherlink.com 1.10,2013-02-24 17:23:00,
2013-02-24 11:38:00,49.9,32.0,30.08,SE,133,2.0,8.0,50,0.00,,,0.00,731,weatherlink.com 1.10,2013-02-24 17:38:00,
2013-02-24 11:53:00,51.2,31.0,30.07,ESE,118,1.0,7.0,47,0.00,,,0.00,740,weatherlink.com 1.10,2013-02-24 17:53:00,
2013-02-24 12:08:00,51.1,32.0,30.07,ESE,103,3.0,8.0,49,0.00,,,0.00,742,weatherlink.com 1.10,2013-02-24 18:08:00,
2013-02-24 12:23:00,52.5,33.0,30.06,ENE,58,5.0,7.0,48,0.00,,,0.00,740,weatherlink.com 1.10,2013-02-24 18:23:00,
2013-02-24 12:38:00,52.5,33.0,30.05,NE,47,3.0,7.0,47,0.00,,,0.00,733,weatherlink.com 1.10,2013-02-24 18:38:00,
2013-02-24 12:53:00,53.6,34.0,30.04,East,84,5.0,6.0,47,0.00,,,0.00,724,weatherlink.com 1.10,2013-02-24 18:53:00,
2013-02-24 13:08:00,54.6,32.0,30.04,East,90,2.0,8.0,43,0.00,,,0.00,714,weatherlink.com 1.10,2013-02-24 19:08:00,
2013-02-24 13:24:00,54.6,33.0,30.03,NNE,33,3.0,9.0,44,0.00,,,0.00,694,weatherlink.com 1.10,2013-02-24 19:24:00,
2013-02-24 13:38:00,55.6,35.0,30.02,ESE,106,2.0,6.0,46,0.00,,,0.00,675,weatherlink.com 1.10,2013-02-24 19:38:00,
2013-02-24 13:53:00,56.2,33.0,30.01,NE,42,3.0,8.0,41,0.00,,,0.00,650,weatherlink.com 1.10,2013-02-24 19:53:00,
2013-02-24 14:08:00,56.7,33.0,30.01,NE,52,4.0,7.0,41,0.00,,,0.00,624,weatherlink.com 1.10,2013-02-24 20:08:00,
2013-02-24 14:23:00,57.1,33.0,30.00,East,97,2.0,6.0,40,0.00,,,0.00,589,weatherlink.com 1.10,2013-02-24 20:23:00,
2013-02-24 14:38:00,57.2,33.0,30.00,East,93,3.0,9.0,40,0.00,,,0.00,550,weatherlink.com 1.10,2013-02-24 20:38:00,
2013-02-24 14:53:00,57.6,34.0,30.00,NW,320,2.0,9.0,41,0.00,,,0.00,510,weatherlink.com 1.10,2013-02-24 20:53:00,
2013-02-24 15:08:00,58.2,33.0,29.99,ENE,66,3.0,8.0,39,0.00,,,0.00,468,weatherlink.com 1.10,2013-02-24 21:08:00,
2013-02-24 15:23:00,58.0,34.0,29.99,SE,139,2.0,9.0,40,0.00,,,0.00,425,weatherlink.com 1.10,2013-02-24 21:23:00,
2013-02-24 15:38:00,58.2,33.0,29.98,East,82,3.0,8.0,39,0.00,,,0.00,378,weatherlink.com 1.10,2013-02-24 21:38:00,
2013-02-24 15:53:00,58.3,33.0,29.98,ENE,64,3.0,10.0,38,0.00,,,0.00,329,weatherlink.com 1.10,2013-02-24 21:53:00,
2013-02-24 16:08:00,58.3,34.0,29.97,East,87,3.0,9.0,40,0.00,,,0.00,279,weatherlink.com 1.10,2013-02-24 22:08:00,
2013-02-24 16:23:00,58.3,33.0,29.97,NE,49,3.0,8.0,39,0.00,,,0.00,229,weatherlink.com 1.10,2013-02-24 22:23:00,
2013-02-24 16:38:00,58.3,33.0,29.96,ENE,69,7.0,9.0,38,0.00,,,0.00,171,weatherlink.com 1.10,2013-02-24 22:38:00,
2013-02-24 16:54:00,58.2,33.0,29.96,East,79,2.0,8.0,39,0.00,,,0.00,114,weatherlink.com 1.10,2013-02-24 22:54:00,
2013-02-24 17:08:00,58.0,33.0,29.96,ENE,58,2.0,6.0,39,0.00,,,0.00,62,weatherlink.com 1.10,2013-02-24 23:08:00,
2013-02-24 17:23:00,57.6,33.0,29.96,ENE,62,2.0,7.0,40,0.00,,,0.00,26,weatherlink.com 1.10,2013-02-24 23:23:00,
2013-02-24 17:38:00,56.6,33.0,29.96,ENE,70,2.0,7.0,41,0.00,,,0.00,12,weatherlink.com 1.10,2013-02-24 23:38:00,
2013-02-24 17:53:00,55.7,33.0,29.97,ENE,68,1.0,4.0,42,0.00,,,0.00,5,weatherlink.com 1.10,2013-02-24 23:53:00,
2013-02-24 18:09:00,54.8,32.0,29.97,ENE,68,0.0,3.0,43,0.00,,,0.00,0,weatherlink.com 1.10,2013-02-25 00:09:00,
2013-02-24 18:23:00,53.4,33.0,29.97,ENE,68,0.0,3.0,47,0.00,,,0.00,0,weatherlink.com 1.10,2013-02-25 00:23:00,
2013-02-24 18:53:00,52.2,32.0,29.97,NNE,29,2.0,4.0,47,0.00,,,0.00,0,weatherlink.com 1.10,2013-02-25 00:53:00,
2013-02-24 19:08:00,51.9,32.0,29.97,ENE,68,0.0,3.0,47,0.00,,,0.00,0,weatherlink.com 1.10,2013-02-25 01:08:00,
2013-02-24 19:23:00,51.1,33.0,29.96,East,86,0.0,4.0,50,0.00,,,0.00,0,weatherlink.com 1.10,2013-02-25 01:23:00,
2013-02-24 19:38:00,49.8,33.0,29.96,East,86,0.0,3.0,52,0.00,,,0.00,0,weatherlink.com 1.10,2013-02-25 01:38:00,
2013-02-24 19:53:00,49.4,32.0,29.95,East,89,1.0,3.0,52,0.00,,,0.00,0,weatherlink.com 1.10,2013-02-25 01:53:00,
2013-02-24 20:08:00,49.3,32.0,29.95,ENE,70,0.0,3.0,52,0.00,,,0.00,0,weatherlink.com 1.10,2013-02-25 02:08:00,
2013-02-24 20:24:00,48.8,33.0,29.95,NE,51,3.0,3.0,54,0.00,,,0.00,0,weatherlink.com 1.10,2013-02-25 02:24:00,
2013-02-24 20:39:00,48.6,32.0,29.94,East,97,1.0,5.0,53,0.00,,,0.00,0,weatherlink.com 1.10,2013-02-25 02:39:00,
2013-02-24 20:54:00,48.1,32.0,29.94,East,79,0.0,5.0,54,0.00,,,0.00,0,weatherlink.com 1.10,2013-02-25 02:54:00,
2013-02-24 21:09:00,47.8,32.0,29.94,East,79,2.0,5.0,54,0.00,,,0.00,0,weatherlink.com 1.10,2013-02-25 03:09:00,
2013-02-24 21:24:00,48.0,32.0,29.93,ENE,72,0.0,7.0,54,0.00,,,0.00,0,weatherlink.com 1.10,2013-02-25 03:24:00,
2013-02-24 21:39:00,48.4,31.0,29.92,ESE,105,3.0,7.0,52,0.00,,,0.00,0,weatherlink.com 1.10,2013-02-25 03:39:00,
2013-02-24 21:54:00,48.1,31.0,29.93,East,85,2.0,5.0,52,0.00,,,0.00,0,weatherlink.com 1.10,2013-02-25 03:54:00,
2013-02-24 22:09:00,48.1,31.0,29.92,East,101,3.0,5.0,51,0.00,,,0.00,0,weatherlink.com 1.10,2013-02-25 04:09:00,
2013-02-24 22:24:00,47.5,30.0,29.92,ENE,73,1.0,6.0,51,0.00,,,0.00,0,weatherlink.com 1.10,2013-02-25 04:24:00,
2013-02-24 22:39:00,47.2,30.0,29.90,NE,51,2.0,7.0,52,0.00,,,0.00,0,weatherlink.com 1.10,2013-02-25 04:39:00,
2013-02-24 22:54:00,47.1,30.0,29.91,East,85,6.0,7.0,52,0.00,,,0.00,0,weatherlink.com 1.10,2013-02-25 04:54:00,
2013-02-24 23:09:00,47.1,30.0,29.91,East,79,3.0,7.0,52,0.00,,,0.00,0,weatherlink.com 1.10,2013-02-25 05:09:00,
2013-02-24 23:24:00,47.1,31.0,29.92,ENE,68,0.0,6.0,53,0.00,,,0.00,0,weatherlink.com 1.10,2013-02-25 05:24:00,
2013-02-24 23:39:00,46.7,31.0,29.92,NE,37,2.0,5.0,54,0.00,,,0.00,0,weatherlink.com 1.10,2013-02-25 05:39:00,
2013-02-24 23:54:00,46.6,31.0,29.91,ESE,116,4.0,5.0,55,0.00,,,0.00,0,weatherlink.com 1.10,2013-02-25 05:54:00,